FW9540 Weather Reports


time (UTC)temp
C
wind
direction
speed
KPH
gust
KPH
rain 1hr
cm
rain 24hr
cm
rain mn
cm
humidity
%
barometer
mb
20260507190118 13 305 0.0 0.0 0.00 0.00 0.00 87 1012.3
20260507185550 13 305 0.0 0.0 0.00 0.00 0.00 87 1012.2
20260507185038 13 305 0.0 0.0 0.00 0.00 0.00 86 1012.0
20260507184535 13 305 0.0 0.0 0.00 0.00 0.00 86 1012.0
20260507183513 13 305 1.6 3.2 0.00 0.00 0.00 87 1011.9
20260507182952 13 305 0.0 3.2 0.00 0.00 0.00 87 1011.8
20260507182437 13 305 0.0 3.2 0.00 0.00 0.00 88 1011.8
20260507181939 13 305 0.0 0.0 0.00 0.00 0.00 89 1011.8
20260507181419 13 305 0.0 0.0 0.00 0.00 0.00 88 1011.7
20260507180335 13 305 0.0 0.0 0.00 0.00 0.00 87 1011.6
20260507175813 13 305 0.0 1.6 0.00 0.00 0.00 87 1011.5
20260507174748 13 305 0.0 0.0 0.00 0.00 0.00 86 1011.4
20260507174231 13 305 0.0 0.0 0.00 0.00 0.00 86 1011.5
20260507173732 13 305 0.0 0.0 0.00 0.00 0.00 86 1011.4
20260507173231 13 305 0.0 0.0 0.00 0.00 0.00 86 1011.4
20260507172730 13 305 0.0 0.0 0.00 0.00 0.00 86 1011.2
20260507172214 14 305 0.0 0.0 0.00 0.00 0.00 86 1011.1
20260507171649 14 305 0.0 0.0 0.00 0.00 0.00 85 1011.1
20260507170650 15 305 0.0 1.6 0.00 0.00 0.00 85 1011.0
20260507170146 15 305 0.0 1.6 0.00 0.00 0.00 84 1011.0
20260507165630 16 305 0.0 0.0 0.00 0.00 0.00 84 1011.0
20260507165112 16 305 0.0 0.0 0.00 0.00 0.00 85 1011.1
20260507164559 16 305 0.0 0.0 0.00 0.00 0.00 84 1011.0
20260507164100 16 305 0.0 1.6 0.00 0.00 0.00 83 1011.0
20260507163101 16 305 0.0 1.6 0.00 0.00 0.00 82 1011.1
20260507162556 16 305 0.0 1.6 0.00 0.00 0.00 82 1011.1
20260507162055 16 305 0.0 1.6 0.00 0.00 0.00 81 1011.0
20260507161554 16 300 0.0 3.2 0.00 0.00 0.00 81 1011.0
20260507161031 17 300 0.0 3.2 0.00 0.00 0.00 80 1011.0
20260507160001 17 296 0.0 3.2 0.00 0.00 0.00 78 1011.0
20260507155500 17 281 0.0 6.4 0.00 0.00 0.00 79 1011.0
20260507154936 17 296 0.0 3.2 0.00 0.00 0.00 78 1011.0
20260507154414 17 295 0.0 0.0 0.00 0.00 0.00 80 1011.0
20260507153913 17 295 0.0 4.8 0.00 0.00 0.00 79 1010.9
20260507153346 17 295 0.0 4.8 0.00 0.00 0.00 79 1010.9
20260507152831 17 190 0.0 0.0 0.00 0.00 0.00 79 1011.0
20260507152329 17 187 0.0 3.2 0.00 0.00 0.00 80 1011.0
20260507151828 17 187 0.0 6.4 0.00 0.00 0.00 81 1010.9
20260507151328 17 186 0.0 6.4 0.00 0.00 0.00 81 1010.8
20260507145730 16 29 0.0 6.4 0.00 0.00 0.00 84 1010.8
20260507145213 16 29 0.0 6.4 0.00 0.00 0.00 84 1010.8
20260507144712 15 29 1.6 8.0 0.00 0.00 0.00 86 1010.8
20260507144149 15 33 1.6 8.0 0.00 0.00 0.00 86 1010.9
20260507143632 15 38 1.6 8.0 0.00 0.00 0.00 87 1010.8
20260507143056 15 30 1.6 9.7 0.00 0.00 0.00 87 1010.8
20260507142536 15 28 1.6 9.7 0.00 0.00 0.00 88 1010.8
20260507141452 15 31 0.0 12.9 0.00 0.00 0.00 88 1010.9
20260507140430 15 196 1.6 11.3 0.00 0.00 0.00 88 1010.9
20260507135929 14 196 3.2 11.3 0.00 0.00 0.00 88 1010.9
20260507135402 15 192 0.0 9.7 0.00 0.00 0.00 88 1011.0
20260507134839 14 187 0.0 3.2 0.00 0.00 0.00 88 1011.1
20260507134314 14 187 0.0 3.2 0.00 0.00 0.00 87 1011.2
20260507133747 14 186 0.0 4.8 0.00 0.00 0.00 87 1011.1
20260507133238 14 186 1.6 9.7 0.00 0.00 0.00 86 1011.1
20260507132738 14 183 3.2 9.7 0.00 0.00 0.00 85 1011.2
20260507132238 14 197 4.8 9.7 0.00 0.00 0.00 86 1011.2
20260507131736 14 192 4.8 12.9 0.00 0.00 0.00 87 1011.3
20260507131218 13 209 4.8 12.9 0.00 0.00 0.00 86 1011.3
20260507130713 13 207 4.8 11.3 0.00 0.00 0.00 87 1011.3
20260507130144 13 227 4.8 17.7 0.00 0.00 0.00 87 1011.3
20260507125626 13 209 3.2 17.7 0.00 0.00 0.00 87 1011.2
20260507125059 13 236 3.2 16.1 0.00 0.00 0.00 88 1011.1
20260507124538 13 261 9.7 24.1 0.00 0.00 0.00 86 1011.2
20260507123012 15 201 1.6 11.3 0.00 0.00 0.00 86 1011.1
20260507122444 15 213 1.6 6.4 0.00 0.00 0.00 85 1010.8
20260507121918 16 238 3.2 14.5 0.00 0.00 0.00 81 1010.5
20260507121350 16 267 4.8 14.5 0.00 0.00 0.00 78 1010.5
20260507120825 17 240 4.8 12.9 0.00 0.00 0.00 73 1010.4
20260507120322 18 200 4.8 12.9 0.00 0.00 0.00 69 1010.3
20260507115800 18 207 3.2 12.9 0.00 0.00 0.00 70 1010.3
20260507115258 18 188 3.2 12.9 0.00 0.00 0.00 70 1010.3
20260507114735 18 200 1.6 11.3 0.00 0.00 0.00 70 1010.0
20260507114207 18 194 0.0 11.3 0.00 0.00 0.00 70 1010.1
20260507113710 19 228 0.0 4.8 0.00 0.00 0.00 65 1010.3
20260507113140 19 228 1.6 6.4 0.00 0.00 0.00 66 1010.3
20260507112614 19 224 1.6 8.0 0.00 0.00 0.00 66 1010.1
20260507111546 20 218 1.6 8.0 0.00 0.00 0.00 64 1010.3
20260507111026 20 212 0.0 8.0 0.00 0.00 0.00 62 1010.1
20260507110521 20 89 1.6 9.7 0.00 0.00 0.00 63 1010.1
20260507110019 20 251 3.2 9.7 0.00 0.00 0.00 66 1010.3
20260507105449 20 265 3.2 9.7 0.00 0.00 0.00 66 1010.4
20260507104922 20 238 1.6 9.7 0.00 0.00 0.00 65 1010.5
20260507104416 20 194 0.0 8.0 0.00 0.00 0.00 64 1010.5
20260507103852 20 153 0.0 4.8 0.00 0.00 0.00 62 1010.6
20260507103325 20 114 0.0 1.6 0.00 0.00 0.00 66 1010.7
20260507102823 20 114 0.0 3.2 0.00 0.00 0.00 67 1010.8
20260507101752 18 87 0.0 4.8 0.00 0.00 0.00 70 1010.8
20260507101253 18 264 0.0 4.8 0.00 0.00 0.00 72 1010.8
20260507100749 18 105 0.0 4.8 0.00 0.00 0.00 72 1010.9
20260507100223 18 203 0.0 4.8 0.00 0.00 0.00 76 1011.0
20260507095657 17 222 0.0 4.8 0.00 0.00 0.00 74 1011.0
20260507094629 17 215 0.0 6.4 0.00 0.00 0.00 74 1011.0
20260507094102 17 196 0.0 4.8 0.00 0.00 0.00 75 1011.0
20260507093600 17 202 0.0 6.4 0.00 0.00 0.00 78 1011.1
20260507093058 17 195 0.0 6.4 0.00 0.00 0.00 79 1011.1
20260507092553 17 26 0.0 6.4 0.00 0.00 0.00 77 1011.2
20260507092048 17 34 0.0 6.4 0.00 0.00 0.00 76 1011.1
20260507091546 17 109 0.0 6.4 0.00 0.00 0.00 77 1011.2
20260507090539 17 107 0.0 4.8 0.00 0.00 0.00 78 1011.2
20260507090037 16 107 0.0 0.0 0.00 0.00 0.00 77 1011.1
20260507085515 16 127 0.0 4.8 0.00 0.00 0.00 77 1011.2
20260507085016 16 162 0.0 4.8 0.00 0.00 0.00 79 1011.3
20260507084512 16 162 0.0 4.8 0.00 0.00 0.00 79 1011.3
20260507084009 16 89 0.0 4.8 0.00 0.00 0.00 79 1011.3
20260507083503 15 59 0.0 6.4 0.00 0.00 0.00 79 1011.3
20260507083007 15 59 0.0 6.4 0.00 0.00 0.00 80 1011.3
20260507081912 15 44 1.6 6.4 0.00 0.00 0.00 80 1011.3
20260507081343 15 44 0.0 4.8 0.00 0.00 0.00 80 1011.3
20260507080840 15 44 0.0 4.8 0.00 0.00 0.00 81 1011.3
20260507080337 15 44 0.0 6.4 0.00 0.00 0.00 80 1011.4
20260507075812 15 44 1.6 6.4 0.00 0.00 0.00 82 1011.3
20260507075245 15 44 0.0 4.8 0.00 0.00 0.00 84 1011.3
20260507074717 15 44 0.0 1.6 0.00 0.00 0.00 83 1011.3
20260507074215 14 44 0.0 1.6 0.00 0.00 0.00 83 1011.2
20260507073712 14 44 0.0 4.8 0.00 0.00 0.00 84 1011.2
20260507073148 13 44 0.0 4.8 0.00 0.00 0.00 86 1011.2
20260507072620 13 44 0.0 1.6 0.00 0.00 0.00 87 1011.3
20260507072055 13 44 0.0 1.6 0.00 0.00 0.00 87 1011.3
20260507071529 13 44 0.0 1.6 0.00 0.00 0.00 87 1011.3
20260507071005 13 44 0.0 1.6 0.00 0.00 0.00 88 1011.2
20260507070439 13 44 0.0 1.6 0.00 0.00 0.00 88 1011.2
20260507065934 12 44 0.0 3.2 0.00 0.00 0.00 89 1011.2
20260507065405 12 44 0.0 3.2 0.00 0.00 0.00 89 1011.1
20260507064309 12 44 0.0 1.6 0.00 0.00 0.00 90 1011.2
20260507063810 12 44 0.0 1.6 0.00 0.00 0.00 90 1011.2
20260507063242 12 44 0.0 0.0 0.00 0.00 0.00 90 1011.2
20260507062713 12 44 0.0 0.0 0.00 0.00 0.00 91 1011.2
20260507062147 12 44 0.0 1.6 0.00 0.00 0.00 91 1011.2
20260507061646 12 44 0.0 1.6 0.00 0.00 0.00 91 1011.1
20260507061118 12 44 0.0 3.2 0.00 0.00 0.00 91 1011.1
20260507060615 12 44 0.0 3.2 0.00 0.00 0.00 91 1011.2
20260507060113 12 44 0.0 1.6 0.00 0.00 0.00 92 1011.1
20260507055611 12 44 0.0 3.2 0.00 0.00 0.00 92 1011.1
20260507055046 11 44 0.0 3.2 0.00 0.00 0.00 92 1011.0
20260507054042 11 44 0.0 1.6 0.00 0.00 0.00 93 1010.9
20260507053514 11 44 0.0 1.6 0.00 0.00 0.00 92 1010.8
20260507053011 11 44 0.0 1.6 0.00 0.00 0.00 92 1010.8
20260507052446 11 44 0.0 1.6 0.00 0.00 0.00 92 1010.7
20260507051937 11 44 0.0 1.6 0.00 0.00 0.00 92 1010.8
20260507051434 11 44 0.0 1.6 0.00 0.00 0.00 92 1010.7
20260507050921 11 44 0.0 1.6 0.00 0.00 0.00 92 1010.7
20260507050419 10 44 0.0 1.6 0.00 0.00 0.00 92 1010.6
20260507045351 10 44 0.0 0.0 0.00 0.00 0.00 92 1010.5
20260507044848 10 44 0.0 1.6 0.00 0.00 0.00 92 1010.5
20260507044322 10 44 0.0 1.6 0.00 0.00 0.00 93 1010.4
20260507042724 10 44 0.0 0.0 0.00 0.00 0.00 93 1010.1
20260507042201 10 44 0.0 1.6 0.00 0.00 0.00 93 1010.0
20260507041657 10 44 0.0 1.6 0.00 0.00 0.00 93 1010.0
20260507041151 11 44 0.0 1.6 0.00 0.00 0.00 93 1010.0
20260507040648 11 44 0.0 0.0 0.00 0.00 0.00 93 1010.0
20260507040123 11 44 0.0 3.2 0.00 0.00 0.00 93 1010.0
20260507035115 11 44 0.0 1.6 0.00 0.00 0.00 93 1009.9
20260507034110 10 44 0.0 1.6 0.00 0.00 0.00 93 1009.9
20260507033530 10 44 0.0 1.6 0.00 0.00 0.00 93 1009.8
20260507033004 10 44 0.0 1.6 0.00 0.00 0.00 93 1009.8
20260507032437 10 44 0.0 1.6 0.00 0.00 0.00 93 1009.8
20260507030316 11 44 0.0 0.0 0.00 0.00 0.00 93 1009.8
20260507025815 11 44 0.0 0.0 0.00 0.00 0.00 93 1009.9
20260507024744 11 44 0.0 0.0 0.00 0.00 0.00 93 1009.9
20260507024239 11 44 0.0 1.6 0.00 0.00 0.00 93 1009.8
20260507023736 11 44 0.0 1.6 0.00 0.00 0.00 93 1009.8
20260507023234 11 44 0.0 1.6 0.00 0.00 0.00 93 1009.9
20260507022731 11 44 1.6 4.8 0.00 0.00 0.00 93 1009.9
20260507021217 11 44 0.0 0.0 0.00 0.00 0.00 93 1009.9
20260507020711 11 44 0.0 0.0 0.00 0.00 0.00 93 1009.9
20260507020143 11 44 0.0 0.0 0.00 0.00 0.00 93 1009.8
20260507015642 11 44 0.0 0.0 0.00 0.00 0.00 93 1009.8
20260507015114 11 44 0.0 0.0 0.00 0.00 0.00 93 1009.7
20260507014550 11 44 0.0 0.0 0.00 0.00 0.00 93 1009.7
20260507013456 11 44 0.0 0.0 0.00 0.00 0.00 93 1009.7
20260507012956 11 44 0.0 0.0 0.00 0.00 0.00 93 1009.6
20260507012430 11 44 0.0 0.0 0.00 0.00 0.00 93 1009.6
20260507011901 11 44 0.0 0.0 0.00 0.00 0.00 93 1009.6
20260507010834 11 44 0.0 0.0 0.00 0.00 0.00 93 1009.6
20260507010326 11 44 0.0 0.0 0.00 0.00 0.00 93 1009.6
20260507005759 11 44 0.0 0.0 0.00 0.00 0.00 93 1009.6
20260507005257 11 44 0.0 0.0 0.00 0.00 0.00 93 1009.6
20260507004758 11 44 0.0 0.0 0.00 0.00 0.00 93 1009.6
20260507004254 11 44 1.6 6.4 0.00 0.00 0.00 93 1009.5
20260507003733 12 44 1.6 6.4 0.00 0.00 0.00 93 1009.5
20260507003233 12 44 0.0 4.8 0.00 0.00 0.00 93 1009.5
20260507002706 12 44 0.0 0.0 0.00 0.00 0.00 93 1009.5
20260507002204 12 44 0.0 0.0 0.00 0.00 0.00 93 1009.5
20260507001659 12 44 0.0 1.6 0.00 0.00 0.00 93 1009.6
20260507001157 12 44 0.0 1.6 0.00 0.00 0.00 93 1009.6
20260507000632 12 44 0.0 0.0 0.00 0.00 0.00 94 1009.6
20260506235053 12 44 0.0 0.0 0.00 0.00 0.00 94 1009.7
20260506234552 12 44 0.0 0.0 0.00 0.00 0.00 94 1009.6
20260506234038 12 44 0.0 0.0 0.00 0.00 0.00 93 1009.6
20260506233539 12 44 0.0 0.0 0.00 0.00 0.00 93 1009.6
20260506232509 12 44 0.0 0.0 0.00 0.00 0.00 93 1009.7
20260506232006 12 44 0.0 0.0 0.00 0.00 0.00 93 1009.7
20260506231438 12 44 0.0 1.6 0.00 0.00 0.00 93 1009.7
20260506230936 12 44 0.0 1.6 0.00 0.00 0.00 93 1009.7
20260506230437 12 44 0.0 6.4 0.00 0.00 0.00 93 1009.7
20260506225924 12 44 0.0 6.4 0.00 0.00 0.00 93 1009.7
20260506225402 12 44 0.0 6.4 0.00 0.00 0.00 93 1009.9
20260506224852 12 36 0.0 3.2 0.00 0.00 0.00 93 1009.8
20260506224348 12 36 0.0 3.2 0.00 0.00 0.00 93 1009.7
20260506223821 12 36 0.0 1.6 0.00 0.00 0.00 93 1009.7
20260506223320 12 36 0.0 1.6 0.00 0.00 0.00 94 1009.6
20260506222751 12 36 0.0 1.6 0.00 0.00 0.00 94 1009.6
20260506222248 12 36 0.0 1.6 0.00 0.00 0.00 94 1009.6
20260506221723 12 36 0.0 0.0 0.00 0.00 0.00 94 1009.6
20260506221220 12 36 0.0 0.0 0.00 0.00 0.00 94 1009.5
20260506220127 12 36 0.0 4.8 0.00 0.00 0.00 93 1009.6
20260506215607 11 36 0.0 4.8 0.00 0.00 0.00 93 1009.6
20260506215053 11 36 0.0 1.6 0.00 0.00 0.00 93 1009.5
20260506214548 11 36 0.0 0.0 0.00 0.00 0.00 93 1009.5
20260506214045 11 36 0.0 3.2 0.00 0.00 0.00 93 1009.5
20260506213035 11 36 0.0 0.0 0.00 0.00 0.00 93 1009.4
20260506212506 11 36 0.0 0.0 0.00 0.00 0.00 93 1009.4
20260506212005 11 36 0.0 0.0 0.00 0.00 0.00 93 1009.4
20260506211500 11 36 0.0 0.0 0.00 0.00 0.00 93 1009.4
20260506210959 11 36 0.0 1.6 0.00 0.00 0.00 93 1009.4
20260506210445 11 36 0.0 1.6 0.00 0.00 0.00 93 1009.4
20260506205953 11 36 0.0 0.0 0.00 0.00 0.00 93 1009.4
20260506205426 11 36 0.0 0.0 0.00 0.00 0.00 92 1009.4
20260506204854 11 36 0.0 0.0 0.00 0.00 0.00 92 1009.3
20260506203824 11 36 0.0 1.6 0.00 0.00 0.00 92 1009.3
20260506203323 11 36 0.0 1.6 0.00 0.00 0.00 92 1009.3
20260506202757 11 36 0.0 1.6 0.00 0.00 0.00 92 1009.2
20260506201306 11 36 0.0 0.0 0.00 0.00 0.00 92 1009.3
20260506200144 11 36 0.0 0.0 0.00 0.00 0.00 92 1009.1
20260506195222 12 36 0.0 0.0 0.00 0.00 0.00 92 1009.0
20260506194708 12 36 0.0 0.0 0.00 0.00 0.00 92 1008.9
20260506194136 12 36 0.0 0.0 0.00 0.00 0.00 92 1008.9
20260506193648 12 36 0.0 1.6 0.00 0.00 0.00 92 1008.9
20260506192608 12 36 0.0 0.0 0.00 0.00 0.00 92 1008.8
20260506191439 12 36 0.0 0.0 0.00 0.00 0.00 91 1008.9
20260506190913 12 36 0.0 0.0 0.00 0.00 0.00 91 1008.9
20260506190505 12 36 0.0 0.0 0.00 0.00 0.00 91 1008.8